Regional Weather Roundup
Issued by NWS Kansas City/Pleasant Hill, MO

Home | Current Version | Previous Version | Graphics & Text | Print | Product List | Glossary Off
Versions: 1 2 3 4 5 6 7 8 9 10 11 12 13 14 15 16 17 18 19 20 21 22 23 24 25 26 27 28

000
ASUS43 KEAX 270810
RWREAX

WEATHER ROUNDUP FOR EASTERN KANSAS AND NORTHWEST MISSOURI
NATIONAL WEATHER SERVICE KANSAS CITY/PLEASANT HILL MO
200 AM CST MON FEB 27 2017

KSZ040-057-103>105-MOZ028-029-037-043-270900-
...KANSAS CITY METROPOLITAN AREA...

CITY           SKY/WX    TMP DP  RH WIND       PRES   REMARKS
K.C. INTL      CLEAR     34  33  96 CALM      30.03R
K.C. DOWNTOWN  CLEAR     35  34  96 CALM      30.03S
LEES SUMMIT    CLEAR     34  34 100 S7        30.03S WCI  28
OLATHE - IXD   FOG       27  26  96 CALM      30.02S VSB 1/4
OLATHE - OJC   FOG       31  31 100 CALM      30.02S VSB 1/2
LAWRENCE       CLEAR     24  24 100 N3        30.03S FOG

$$

MOZ001>008-011>017-020>025-030>033-038>040-044>046-053-054-270900-
...NORTHERN AND CENTRAL MISSOURI...

CITY           SKY/WX    TMP DP  RH WIND       PRES   REMARKS
ST. JOSEPH     FOG       28  28 100 S5        30.04R VSB<1/4 WCI  23
MOSBY          CLOUDY    28  28 100 CALM      30.05R FOG
WARRENSBURG    FOG       32  32 100 E3        30.05S VSB 1/2
WHITEMAN AFB   CLEAR     31  31 100 NE3       30.03S FOG
CLINTON        FOG       28  28 100 CALM      30.04S VSB<1/4
SEDALIA        CLEAR     32  30  92 E3        30.05S FOG
WARSAW         NOT AVBL
CHILLICOTHE      N/A     28  26  92 CALM      30.06R
KIRKSVILLE     FOG       30  29  96 S3        30.06S VSB 1/4

$$

MOZ041-047>049-056>058-063>065-088>090-097-270900-
...EASTERN AND SOUTHERN MISSOURI...

CITY           SKY/WX    TMP DP  RH WIND       PRES   REMARKS
ST. LOUIS INTL CLOUDY    42  35  76 E5        30.10S
SPIRIT OF STL  PTCLDY    36  34  92 CALM      30.09S
COLUMBIA       CLEAR     35  34  96 E7        30.05S WCI  29
JEFFERSON CITY CLEAR     33  32  96 SE5       30.07R WCI  29
ROLLA          PTCLDY    37  33  85 SE8       30.03S WCI  31
OSAGE BEACH    CLEAR     33  32  96 E3        30.05S
SPRINGFIELD    CLEAR     38  27  64 SE9       30.01S WCI  31
BRANSON        CLOUDY    39  30  70 CALM      30.03S
JOPLIN         CLEAR     33  31  92 CALM      30.01R
WEST PLAINS    CLOUDY    43  26  51 E3        30.05S

$$

IAZ060-094-KSZ022-034>040-054-083-096-NEZ052-066-093-270900-
...KANSAS...SOUTHEAST NEBRASKA AND IOWA...

CITY           SKY/WX    TMP DP  RH WIND       PRES   REMARKS
TOPEKA         FOG       27  26  96 CALM      30.02S VSB 1/2
MANHATTAN      CLEAR     25  20  81 CALM      30.00F
EMPORIA        PTCLDY    28  26  92 CALM      29.99F
CHANUTE        CLEAR     25  25 100 E3        30.01S FOG
WICHITA        PTCLDY    35  27  72 E7        29.96F WCI  29
OMAHA          CLEAR     26  19  74 SE6       29.99F WCI  19
LINCOLN        CLEAR     20  17  88 CALM      30.00S
FALLS CITY     CLEAR     24  19  81 CALM      30.01R
LAMONI         MOCLDY    32  24  72 S6        30.01S WCI  26
DES MOINES     PTCLDY    32  22  66 CALM      30.03S

$$





USA.gov is the U.S. government's official web portal to all federal, state and local government web resources and services.